Location: East Guldeford
(50.9500°N, 0.7500°E)
Time: 09:52:14
(UTC+00:00)

Cosmos 2297 - Pass Details

Date: 12 May 2021
Orbit: 837 x 857 km, 71.0° (Epoch: 17 June)

Event Time Altitude Azimuth Distance (km) Brightness Sun altitude
Exits shadow 22:50:26 20° 214° (SW) 1,856 5.1 -19.3°
Maximum altitude 22:54:27 81° 300° (WNW) 865 3.7 -19.5°
Drops below altitude 10° 23:00:10 10° 28° (NNE) 2,475 6.8 -19.7°
Sets 23:02:37 0° 30° (NNE) 3,411 7.6 -19.8°
